Location: Gniazdowice
(50.2124°N, 20.2673°E)
Time: 00:05:33
(UTC+00:00)

AQUA - Pass Details

Date: 23 May 2024
Orbit: 693 x 697 km, 98.3° (Epoch: 18 June)

Event Time Altitude Azimuth Distance (km) Brightness Sun altitude
Rises 01:56:54 0° 9° (N) 3,088 8.1 -6.4°
Reaches altitude 10° 01:59:13 10° 4° (N) 2,165 7.1 -6.1°
Maximum altitude 02:03:43 45° 292° (WNW) 954 4.4 -5.6°
Drops below altitude 10° 02:08:11 10° 221° (SW) 2,148 5.7 -5.1°
Enters shadow 02:09:10 - 218° (SW) 2,533 6.0 -5.0°
